Regional Weather Roundup
Issued by NWS Jackson, KY

Home | Current Version | Previous Version | Graphics & Text | Print | Product List | Glossary On
Versions: 1 2 3 4 5 6 7 8 9 10 11 12 13 14 15 16 17 18 19 20 21 22 23 24 25 26 27 28 29 30 31 32 33 34 35 36 37 38 39 40 41 42 43 44 45 46 47 48 49 50
000
ASUS43 KJKL 300310
RWRJKL

EAST KENTUCKY HOURLY WEATHER ROUNDUP
NATIONAL WEATHER SERVICE JACKSON KY
1100 PM EDT SAT AUG 29 2015

NOTE: "FAIR" INDICATES FEW OR NO CLOUDS BELOW 12,000 FEET WITH
NO SIGNIFICANT WEATHER AND/OR OBSTRUCTIONS TO VISIBILITY.

* THESE REPORTS ARE NOT UNDER NWS QUALITY CONTROL AND MAY NOT
  REPORT WEATHER SUCH AS PRECIPITATION AND FOG.

KYZ079-080-083-085-087-088-110-112-115-119-120-300400
...EASTERN KENTUCKY...

CITY           SKY/WX    TMP DP  RH WIND       PRES   REMARKS
JACKSON        CLEAR     73  63  70 S3        30.15R
LONDON         CLEAR     72  65  78 CALM      30.15R
SOMERSET*      CLEAR     70  70 100 CALM      30.14S
MONTICELLO*    PTCLDY    70  70 100 CALM      30.16R
WILLIAMSBURG*  CLEAR     64  64 100 CALM      30.15
MIDDLESBORO*   PTCLDY    68  66  91 CALM      30.17R
HAZARD APT*    CLEAR     68  68 100 CALM      30.15R
BLACK MTN*       N/A     63  57  82 S2          N/A
PIKEVILLE APT* CLEAR     72  64  78 S5        30.16R
BIG SANDY*     CLEAR     69  67  95 CALM      30.15R
MOREHEAD APT*  PTCLDY    72  66  83 CALM      30.14S
$$

KYZ035-036-041-042-044-050-067-078-099-300400
...CENTRAL KENTUCKY...

CITY           SKY/WX    TMP DP  RH WIND       PRES   REMARKS
MT STERLING*   PTCLDY   N/A N/A N/A CALM      30.14R HAZE
FLEMING/MASON* CLEAR     70  64  83 S5        30.12R
DANVILLE*      CLEAR     70  68  94 S3        30.13S
RICHMOND*      CLEAR     73  66  78 S3        30.12R
LEXINGTON      CLEAR     73  67  81 S5        30.12R
FRANKFORT      CLEAR     72  65  78 S3        30.09R
$$

KYZ091>093-OHZ055-061-077-WVZ005-015-034-035-042-300400
...SOUTHERN OHIO/WEST VIRGINIA...

CITY           SKY/WX    TMP DP  RH WIND       PRES   REMARKS
COVINGTON      PTCLDY    70  66  87 S5        30.08S
COLUMBUS       CLOUDY    70  64  81 CALM      30.08S
DAYTON         CLOUDY    74  65  73 S7        30.09S
WILMINGTON     CLOUDY    68  64  87 S3        30.09S
HUNTINGTON     CLEAR     69  65  86 E3        30.11S
CHARLESTON     PTCLDY    69  66  90 CALM      30.13R
PINEVILLE*     CLEAR     64  64 100 MISG      30.24R FOG
BECKLEY        PTCLDY    65  58  78 CALM      30.23R
BLUEFIELD      MOCLDY    71  57  61 VRB6      30.25S
$$

VAZ002-007-008-TNZ017-027-036-066-071-300400
...SOUTHWEST VIRGINIA/EAST TENNESSEE...

CITY           SKY/WX    TMP DP  RH WIND       PRES   REMARKS
WISE*          MOCLDY    72  55  56 S6        30.24S
JONESVILLE*    MOCLDY    66  66 100 CALM      30.19S
ABINGDON*      CLOUDY    70  63  79 CALM      30.22S
BRISTOL        CLOUDY    69  65  86 CALM      30.18R
KNOXVILLE      CLOUDY    75  66  73 CALM      30.14R
OAK RIDGE      MOCLDY    76  65  68 CALM      30.16R
CROSSVILLE     MOCLDY    72  65  78 CALM      30.18S
NASHVILLE      PTCLDY    71  66  84 S6        30.11R
$$

...KEY TO REMARKS...
VSB - VISIBILITY IN MILES
WCI - WIND CHILL INDEX
HX  - HEAT INDEX

$$



USA.gov is the U.S. government's official web portal to all federal, state and local government web resources and services.